sat.trackr.live / text

‹ back to catalog

STARLINK-32506

NORAD 62167 · 2024-225E

PAYLOAD ACTIVE UNKNOWN

§ Identity

Operator
Country
US
Launch date
2024-11-30
Launch site
AFWTR
Launch vehicle
Mass (kg)
RCS (m²)

Purposes: comms

External: N2YO · Heavens-Above · Gunter

§ Orbital elements

Epoch: 2026-05-24T22:48:37.145952Z

Period
96.11 min
Inclination
70.0012°
Eccentricity
0.0002763
Mean motion
14.98318634 rev/d
Perigee alt
570.2 km
Apogee alt
574.0 km
Semi-major
6,950.2 km
B*
1.0080e-4
RAAN
332.3576°
Arg perigee
263.4408°
Mean anomaly
96.6436°
Rev number
8,129

§ Raw data

STARLINK-325061 62167U 24225E   26144.95042993  .00001110  00000+0  10080-3 0  99992 62167  70.0012 332.3576 0002763 263.4408  96.6436 14.98318634 81299

JSON: /api/v1/satellites/62167 · /tle

For live sub-satellite position, see the globe view (requires WebGL).

§ Visibility from observer

Set your observer location to see the next 7 days of passes ≥ 10°. The values pass through the URL so the page stays shareable.

No JS? Fill the form by hand. The geolocation button needs JavaScript.